Flag for U.S.A. Weather past 2 weeks in Irvine, California, U.S.A.

Now
70 °F

Low clouds.


Feels Like: 72 °F
Forecast: 65 / 88 °F
Wind: No wind

Location: John Wayne Airport-Orange County Airport

Current Time: Aug 30, 2014 at 9:55:13 AM

Latest Report: Aug 30, 2014 at 8:53 AM


Visibility: 8 mi

Pressure: 29.84 "Hg

Humidity: 76%

Dew point: 62 °F

Location of IrvineLocation

Historic Weather in Irvine — Graph

°F

Irvine temperature yesterday

Maximum temperature yesterday: 83 °F (at 11:53 AM)
Minimum temperature yesterday: 71 °F (at 2:53 AM)
Average temperature yesterday: 75 °F

Past Weeks' High & Low Weather Summary

 TemperatureHumidityPressure
High92 °F (Aug 27, 11:53 AM)81% (Aug 18, 3:53 AM)30.03 "Hg (Aug 18, 3:53 AM)
Low68 °F (Aug 23, 5:53 AM)23% (Aug 27, 4:53 PM)29.79 "Hg (Aug 18, 4:53 PM)
Average76 °F61%29.91 "Hg
* Reported Aug 15 8:53 AM — Aug 30 8:53 AM, Irvine, Weather by CustomWeather, © 2014

Note: Actual official high and low records may vary slightly from our data, if they occured in-between our weather recording intervals... More about our weather records

Advertising

Irvine weather history for previous 24 hours

 ConditionsComfort  
Time TempWeatherWind HumidityBarometerVisibility
8:53 AM
Aug 30
70 °FLow clouds.No wind76%29.84 "Hg8 mi
7:53 AM69 °FLow clouds.No wind79%29.83 "Hg8 mi
6:53 AM70 °FLow clouds.6 mph76%29.82 "Hg9 mi
5:53 AM70 °FLow clouds.3 mph76%29.81 "Hg10 mi
4:53 AM70 °FLow clouds.No wind79%29.81 "Hg10 mi
3:53 AM70 °FLow clouds.3 mph81%29.81 "Hg10 mi
2:53 AM70 °FClear.No wind81%29.80 "Hg10 mi
1:53 AM70 °FClear.No wind79%29.81 "Hg10 mi
12:53 AM70 °FClear.5 mph79%29.82 "Hg10 mi
11:53 PM
Aug 29
71 °FClear.6 mph76%29.82 "Hg10 mi
10:53 PM72 °FClear.5 mph76%29.83 "Hg10 mi
9:53 PM73 °FClear.5 mph71%29.83 "Hg10 mi
8:53 PM73 °FClear.No wind69%29.83 "Hg10 mi
7:53 PM74 °FScattered clouds.7 mph67%29.80 "Hg10 mi
6:53 PM76 °FPassing clouds.7 mph60%29.79 "Hg10 mi
5:53 PM78 °FPassing clouds.7 mph58%29.80 "Hg10 mi
4:53 PM80 °FPassing clouds.7 mph56%29.80 "Hg10 mi
3:53 PM80 °FScattered clouds.8 mph54%29.80 "Hg10 mi
2:53 PM82 °FScattered clouds.8 mph53%29.82 "Hg10 mi
1:53 PM82 °FPassing clouds.10 mph51%29.84 "Hg10 mi
11:53 AM83 °FPassing clouds.10 mph50%29.86 "Hg10 mi
10:53 AM81 °FPassing clouds.8 mph53%29.88 "Hg10 mi
9:53 AM79 °FPassing clouds.6 mph50%29.88 "Hg10 mi
Weather by CustomWeather, © 2014

See weather overviewHow to use our weather pages